Regional Weather Roundup
Issued by NWS

Home | Current Version | Previous Version | Graphics & Text | Print | Product List | Glossary On
Versions: 1 2 3 4 5 6 7 8 9 10 11 12 13 14 15 16 17 18 19 20 21 22 23 24 25 26 27 28 29 30 31 32 33 34 35 36 37 38 39 40 41 42 43 44 45 46 47 48 49 50
000
ASUS43 KMPX 292210
RWRMN
WEATHER ROUNDUP FOR MINNESOTA
NATIONAL WEATHER SERVICE TWIN CITIES/CHANHASSEN MN
500 PM CDT SAT APR 29 2017


NOTE: "FAIR" INDICATES FEW OR NO CLOUDS BELOW 12,000 FEET WITH NO
SIGNIFICANT WEATHER AND/OR OBSTRUCTIONS TO VISIBILITY. N/A MEANS
CURRENT SKY AND/OR WEATHER CONDITIONS ARE NOT AVAILABLE.

MNZ060>063-068>070-292300-
   Twin Cities Metro

CITY           SKY/WX    TMP DP  RH WIND       PRES   REMARKS
TWIN CITIES    CLOUDY    55  22  27 NE17      30.22F
ST PAUL        PTSUNNY   55  24  30 NE13G23   30.23F
CRYSTAL        CLOUDY    54  21  27 N15       30.22F
BLAINE         CLOUDY    55  23  28 NE14G23   30.23F
LAKEVILLE      PTSUNNY   52  27  37 NE15      30.21F
EDEN PRAIRIE   CLOUDY    56  24  29 NE14G22   30.21F
SOUTH ST PAUL  PTSUNNY   55  24  30 NE9G18    30.22F
LAKE ELMO      FAIR      54  27  35 NE12      30.23F
$$
MNZ001>005-007-008-013>017-022>024-027-028-292300-
   Northwest Minnesota

CITY           SKY/WX    TMP DP  RH WIND       PRES   REMARKS
BEMIDJI        CLOUDY    56  23  27 E3        30.30F
HALLOCK        MOSUNNY   59  16  18 SW7       30.29F
ROSEAU         SUNNY     57  27  30 SW3       30.31S
WARROAD        SUNNY     50  25  37 E9        30.33S
THIEF RVR FALL SUNNY     57  17  21 E6        30.31F
CROOKSTON      SUNNY     57  21  24 CALM      30.30F
FOSSTON        MOSUNNY   61  21  21 S5        30.30F
DETROIT LAKES  CLOUDY    57  23  26 NE7       30.28F
MOORHEAD       SUNNY     57  19  23 CALM      30.29F
PARK RAPIDS    CLOUDY    57  16  20 E9        30.27F
MAHNOMEN       FAIR      55  25  31 CALM      30.28F
$$
MNZ006-009>011-018-025>026-292300-
   North Central Minnesota

CITY           SKY/WX    TMP DP  RH WIND       PRES   REMARKS
BAUDETTE       SUNNY     59  18  20 NE5       30.31F
FLAG ISLAND    SUNNY     50  10  20 SE6       30.32R
INTL FALLS     SUNNY     54  17  23 E6        30.33F
WASKISH        MOSUNNY   54  27  35 W7        30.32F
BIG FORK       CLOUDY    57  19  23 E6        30.31F
LONGVILLE      MOSUNNY   55  19  24 N8        30.28F
GRAND RAPIDS   CLOUDY    54  17  23 MISG      30.31F
CRANE LAKE     SUNNY     54  10  17 N3        30.36S
ORR            MOSUNNY   55   9  15 NW5       30.31S
COOK           CLOUDY    54  18  24 NE5       30.34S
WALKER         FAIR      52  18  26 E7        30.29F
$$
MNZ012-019>021-037-292300-
   Northeast Minnesota

CITY           SKY/WX    TMP DP  RH WIND       PRES   REMARKS
DULUTH         CLOUDY    47  13  25 E15       30.34F
ELY            CLOUDY    52   9  17 E3        30.34S
HIBBING        CLOUDY    53  16  23 NE3       30.32F
EVELETH        MOSUNNY   55  -1  10 NE6       30.34S
DULUTH HARBOR  CLOUDY    41  34  75 NE10      30.38F
TWO HARBORS    MOSUNNY   48  27  43 E13       30.36F
SILVER BAY     MOSUNNY   46  19  34 E6        30.36F
GRAND MARAIS     N/A     42  31  64 SW7       30.41F
G MARAIS ARPRT CLOUDY    41  12  30 S3        30.38F
$$
MNZ029>031-032-039>041-046>048-054>057-064-292300-
   West Central Minnesota

CITY           SKY/WX    TMP DP  RH WIND       PRES   REMARKS
FERGUS FALLS   SUNNY     55  23  28 NE8       30.26F
WHEATON        SUNNY     55  19  24 NE7       30.28F
MORRIS         SUNNY     57  25  28 NE10G17   30.25F
ALEXANDRIA     PTSUNNY   55  21  26 NE12      30.26F
ELBOW LAKE     FAIR      55  25  30 NE9       30.27F
WADENA         MOSUNNY   55  25  30 NE9       30.26F
GLENWOOD       PTSUNNY   55  25  30 NE15      30.25F
APPLETON       MOSUNNY   57  19  23 NE14      30.23F
BENSON         MOSUNNY   59   7  12 E9G17     30.26F
ORTONVILLE     MOSUNNY   55  21  26 NE15      30.24F
MADISON        CLOUDY    57  25  28 NE14G20   30.23F
WILLMAR        FAIR      55  27  33 NE14G22   30.23F
$$
MNZ033>034-036-042>043-049>051-058-059-292300-
   Central Minnesota

CITY           SKY/WX    TMP DP  RH WIND       PRES   REMARKS
ST CLOUD       CLOUDY    54  20  26 NE15G21   30.24F
SAUK CENTRE    FAIR      54  24  30 E12       30.25F
PAYNESVILLE    CLOUDY    55  23  28 NE10      30.25F
AITKIN         CLOUDY    57   9  14 NE7       30.27F
PINE RIVER     CLOUDY    55  27  33 NE3       30.30F
BRAINERD       MOSUNNY   55  21  26 NE6       30.28F
STAPLES        CLOUDY    55  19  24 N9        30.26F
LONG PRAIRIE   FAIR      54  27  35 NE12      30.26F
LITTLE FALLS   CLOUDY    54  19  26 E10       30.26F
LITCHFIELD     PTSUNNY   55  27  33 NE13G18   30.25F
BUFFALO        CLOUDY    54  23  29 NE12G18   30.24F
MAPLE LAKE     PTSUNNY   55  25  32 NE13G22   30.24F
HUTCHINSON     MOSUNNY   54  28  36 NE17      30.24F
$$
MNZ037-044-045-052-053-292300-
   East Central Minnesota

CITY           SKY/WX    TMP DP  RH WIND       PRES   REMARKS
PRINCETON      CLOUDY    57  21  24 N15G21    30.25F
MORA           CLOUDY    54  18  24 NE7G16    30.29F
CAMBRIDGE      CLOUDY    57  32  38 N7G17     30.24F
RUSH CITY      PTSUNNY   55  22  27 NE9       30.26F
MOOSE LAKE     MOSUNNY   52  21  30 E7        30.29F
HINCKLEY       FAIR      54  21  28 NE12G18   30.28F
CLOQUET        MOSUNNY   48   9  20 E12       30.33F
MCGREGOR       MOSUNNY   55  21  26 NE7       30.29F
$$
MNZ071>073-080-081-089-090-097-098-292300-
   Southwest Minnesota

CITY           SKY/WX    TMP DP  RH WIND       PRES   REMARKS
MONTEVIDEO     CLOUDY    57  23  26 E15G22    30.22F
GRANITE FALLS  CLOUDY    56  27  32 NE17      30.22F
CANBY          PTSUNNY   57  22  25 NE20G25   30.21F
MARSHALL       CLOUDY    54  23  30 NE21G28   30.18F
REDWOOD FALLS  MOSUNNY   55  20  25 NE15G24   30.19F
OLIVIA         PTSUNNY   54  25  32 NE15G24   30.20F
PIPESTONE      MOSUNNY   54  14  20 NE21G29   30.12F
WINDOM         PTSUNNY   52  19  28 NE22G29   30.14F
WORTHINGTON    CLOUDY    50  23  34 NE26G33   30.08F
JACKSON        PTSUNNY   48  27  43 NE28      30.11F
TRACY          CLOUDY    54  26  34 NE23G32   30.16F
SLAYTON        PTSUNNY   51  23  33 NE20G28   30.14F
$$
MNZ065>067-074>077-082>085-091>093-292300-
   South Central Minnesota

CITY           SKY/WX    TMP DP  RH WIND       PRES   REMARKS
NEW ULM        CLOUDY    52  23  32 NE15G21   30.18F
ST JAMES       CLOUDY    52  25  35 NE14G23   30.17F
FAIRMONT       CLOUDY    49  26  41 NE22      30.12F
GLENCOE        CLOUDY    53  27  35 NE9G18    30.20F
FARIBAULT      PTSUNNY   52  28  40 NE14G21   30.19F
OWATONNA       CLOUDY    50  27  40 NE16G25   30.17F
WASECA         CLOUDY    50  30  46 NE17      30.17F
ALBERT LEA     CLOUDY    48  27  43 NE22      30.12F
$$
MNZ078>079-086>088-094>096-292300-
   Southeast Minnesota

CITY           SKY/WX    TMP DP  RH WIND       PRES   REMARKS
ROCHESTER      CLOUDY    47  30  51 NE20      30.17F
RED WING       PTSUNNY   54  23  30 E9G17     30.20F
STANTON        PTSUNNY   53  29  39 NE17      30.19F
DODGE CENTER   CLOUDY    48  28  46 NE17      30.16F
WINONA         CLOUDY    50  30  46 NE8G16    30.19F
AUSTIN         CLOUDY    48  28  46 NE15G21   30.14F
PRESTON        CLOUDY    45  28  51 NE18G26   30.17F
$$
ABBREVIATIONS USED IN REMARKS
   TC - TEMPERATURES IN CELSIUS
  WCI - WIND CHILL INDEX
   HX - HEAT INDEX
  VSB - VISIBILITY
$$



USA.gov is the U.S. government's official web portal to all federal, state and local government web resources and services.